When you browse on this site, cookies collect data to enhance your experience and personalize the content and advertising you see.
Visit our Privacy Policy to learn more. By continuing to use the site, you agree to this use of cookies and data.
  • In Austria
  • List of Countries
  • For 7 days
  • Water Temperature
  • Weather Map
  • News
  • Weather Widgets
  • user-avatar
    Login

    Hourly Weather Sylhet

    Today, 29 February, Saturday

    Time Temperature Precipitation Wind Pressure Humidity
    00:00 +18°C° 0 mm 0 mps 759 mmHg 60%
    01:00 +18°C° 0 mm 0 mps 758 mmHg 62%
    02:00 +19°C° 0 mm 1 mps 757 mmHg 63%
    03:00 +19°C° 0 mm 1 mps 757 mmHg 65%
    04:00 +18°C° 0 mm 1 mps 757 mmHg 66%
    05:00 +18°C° 0 mm 1 mps 757 mmHg 68%
    06:00 +18°C° 0 mm 1 mps 758 mmHg 71%
    07:00 +20°C° 0 mm 1 mps 758 mmHg 65%
    08:00 +23°C° 0 mm 1 mps 758 mmHg 59%
    09:00 +25°C° 0 mm 2 mps 759 mmHg 53%
    10:00 +27°C° 0 mm 1 mps 758 mmHg 47%
    11:00 +30°C° 0 mm 1 mps 758 mmHg 41%
    12:00 +30°C° 0 mm 0 mps 758 mmHg 36%
    13:00 +32°C° 0 mm 1 mps 757 mmHg 34%
    14:00 +32°C° 0 mm 1 mps 756 mmHg 33%
    15:00 +32°C° 0 mm 2 mps 755 mmHg 31%
    16:00 +30°C° 0 mm 2 mps 755 mmHg 36%
    17:00 +28°C° 0 mm 2 mps 755 mmHg 42%
    18:00 +26°C° 0 mm 2 mps 755 mmHg 47%
    19:00 +25°C° 0 mm 2 mps 756 mmHg 48%
    20:00 +24°C° 0 mm 1 mps 757 mmHg 48%
    21:00 +24°C° 0 mm 1 mps 758 mmHg 49%
    22:00 +23°C° 0 mm 1 mps 758 mmHg 51%
    23:00 +22°C° 0 mm 1 mps 758 mmHg 54%

    Tomorrow, 1 March, Sunday

    Time Temperature Precipitation Wind Pressure Humidity
    00:00 +19°C° 0 mm 0 mps 758 mmHg 56%
    01:00 +21°C° 0 mm 1 mps 757 mmHg 58%
    02:00 +20°C° 0 mm 1 mps 757 mmHg 59%
    03:00 +20°C° 0 mm 1 mps 757 mmHg 60%
    04:00 +19°C° 0 mm 1 mps 757 mmHg 62%
    05:00 +19°C° 0 mm 1 mps 757 mmHg 64%
    06:00 +18°C° 0 mm 1 mps 757 mmHg 67%
    07:00 +21°C° 0 mm 1 mps 758 mmHg 60%
    08:00 +23°C° 0 mm 1 mps 758 mmHg 54%
    09:00 +26°C° 0 mm 1 mps 759 mmHg 48%
    10:00 +28°C° 0 mm 1 mps 758 mmHg 42%
    11:00 +29°C° 0 mm 0 mps 758 mmHg 37%
    12:00 +31°C° 0 mm 0 mps 758 mmHg 32%
    13:00 +33°C° 0 mm 1 mps 757 mmHg 30%
    14:00 +34°C° 0 mm 2 mps 756 mmHg 29%
    15:00 +34°C° 0 mm 2 mps 755 mmHg 27%
    16:00 +31°C° 0 mm 2 mps 755 mmHg 32%
    17:00 +29°C° 0 mm 2 mps 755 mmHg 38%
    18:00 +27°C° 0 mm 2 mps 755 mmHg 43%
    19:00 +26°C° 0 mm 1 mps 756 mmHg 44%
    20:00 +25°C° 0 mm 1 mps 756 mmHg 45%
    21:00 +22°C° 0 mm 0 mps 757 mmHg 45%
    22:00 +22°C° 0 mm 0 mps 757 mmHg 47%
    23:00 +23°C° 0 mm 1 mps 757 mmHg 50%

    Day after tomorrow, 2 March, Monday

    Time Temperature Precipitation Wind Pressure Humidity
    00:00 +22°C° 0 mm 1 mps 757 mmHg 52%
    01:00 +22°C° 0 mm 1 mps 757 mmHg 54%
    02:00 +21°C° 0 mm 1 mps 756 mmHg 56%
    03:00 +21°C° 0 mm 1 mps 756 mmHg 58%
    04:00 +20°C° 0 mm 1 mps 756 mmHg 60%
    05:00 +20°C° 0 mm 1 mps 757 mmHg 61%
    06:00 +19°C° 0 mm 1 mps 757 mmHg 63%
    07:00 +22°C° 0 mm 1 mps 757 mmHg 57%
    08:00 +24°C° 0 mm 1 mps 758 mmHg 51%
    09:00 +25°C° 0 mm 0 mps 758 mmHg 45%
    10:00 +29°C° 0 mm 1 mps 758 mmHg 41%
    11:00 +31°C° 0 mm 1 mps 757 mmHg 36%
    12:00 +33°C° 0 mm 1 mps 757 mmHg 32%
    13:00 +34°C° 0 mm 2 mps 756 mmHg 30%
    14:00 +35°C° 0 mm 2 mps 755 mmHg 27%
    15:00 +35°C° 0 mm 3 mps 754 mmHg 25%
    16:00 +32°C° 0 mm 2 mps 754 mmHg 31%
    17:00 +30°C° 0 mm 2 mps 754 mmHg 37%
    18:00 +27°C° 0 mm 1 mps 754 mmHg 42%
    19:00 +26°C° 0 mm 1 mps 755 mmHg 43%
    20:00 +26°C° 0 mm 1 mps 756 mmHg 44%
    21:00 +23°C° 0 mm 0 mps 756 mmHg 45%
    22:00 +24°C° 0 mm 1 mps 756 mmHg 47%
    23:00 +24°C° 0 mm 1 mps 756 mmHg 48%

    3 March, Tuesday

    Time Temperature Precipitation Wind Pressure Humidity
    00:00 +23°C° 0 mm 1 mps 756 mmHg 49%
    01:00 +22°C° 0 mm 1 mps 756 mmHg 51%
    02:00 +22°C° 0 mm 1 mps 756 mmHg 53%
    03:00 +21°C° 0 mm 1 mps 756 mmHg 56%
    04:00 +21°C° 0 mm 1 mps 756 mmHg 58%
    05:00 +20°C° 0 mm 1 mps 756 mmHg 60%
    06:00 +20°C° 0 mm 1 mps 756 mmHg 62%
    07:00 +22°C° 0.1 mm 1 mps 757 mmHg 59%
    08:00 +24°C° 0.1 mm 1 mps 757 mmHg 56%
    09:00 +26°C° 0.1 mm 1 mps 758 mmHg 52%
    10:00 +28°C° 0 mm 1 mps 758 mmHg 46%
    11:00 +30°C° 0 mm 2 mps 757 mmHg 41%
    12:00 +32°C° 0 mm 2 mps 756 mmHg 35%
    13:00 +32°C° 0 mm 2 mps 755 mmHg 33%
    14:00 +34°C° 0 mm 2 mps 755 mmHg 31%
    15:00 +34°C° 0 mm 2 mps 754 mmHg 29%
    16:00 +31°C° 0 mm 2 mps 754 mmHg 35%
    17:00 +29°C° 0 mm 2 mps 754 mmHg 41%
    18:00 +27°C° 0 mm 2 mps 753 mmHg 47%
    19:00 +26°C° 0.1 mm 2 mps 754 mmHg 49%
    20:00 +25°C° 0.1 mm 1 mps 755 mmHg 52%
    21:00 +25°C° 0.1 mm 1 mps 756 mmHg 54%
    22:00 +23°C° 0.9 mm 2 mps 756 mmHg 62%
    23:00 +21°C° 0.9 mm 2 mps 756 mmHg 70%

    4 March, Wednesday

    Time Temperature Precipitation Wind Pressure Humidity
    00:00 +20°C° 0.9 mm 2 mps 756 mmHg 78%
    01:00 +19°C° 2 mm 2 mps 756 mmHg 82%
    02:00 +19°C° 2 mm 2 mps 756 mmHg 86%
    03:00 +20°C° 2 mm 1 mps 756 mmHg 90%
    04:00 +18°C° 0.5 mm 2 mps 756 mmHg 91%
    05:00 +18°C° 0.5 mm 2 mps 756 mmHg 92%
    06:00 +18°C° 0.5 mm 3 mps 757 mmHg 94%
    07:00 +20°C° 0.3 mm 3 mps 757 mmHg 88%
    08:00 +21°C° 0.3 mm 3 mps 758 mmHg 83%
    09:00 +24°C° 0.3 mm 3 mps 758 mmHg 77%
    10:00 +26°C° 0 mm 3 mps 758 mmHg 68%
    11:00 +28°C° 0 mm 2 mps 757 mmHg 58%
    12:00 +31°C° 0 mm 1 mps 757 mmHg 49%
    13:00 +32°C° 0 mm 2 mps 756 mmHg 46%
    14:00 +32°C° 0 mm 2 mps 755 mmHg 43%
    15:00 +34°C° 0 mm 2 mps 754 mmHg 40%
    16:00 +31°C° 0.1 mm 2 mps 754 mmHg 46%
    17:00 +29°C° 0.1 mm 3 mps 754 mmHg 52%
    18:00 +27°C° 0.1 mm 3 mps 754 mmHg 59%
    19:00 +25°C° 0.9 mm 2 mps 755 mmHg 68%
    20:00 +24°C° 0.9 mm 1 mps 756 mmHg 78%
    21:00 +20°C° 0.9 mm 0 mps 757 mmHg 87%
    22:00 +21°C° 0.1 mm 1 mps 757 mmHg 88%
    23:00 +21°C° 0.1 mm 1 mps 757 mmHg 88%

    5 March, Thursday

    Time Temperature Precipitation Wind Pressure Humidity
    00:00 +20°C° 0.1 mm 2 mps 757 mmHg 89%
    01:00 +20°C° 0 mm 2 mps 757 mmHg 90%
    02:00 +20°C° 0 mm 1 mps 757 mmHg 91%
    03:00 +20°C° 0 mm 1 mps 757 mmHg 92%
    04:00 +19°C° 0.2 mm 2 mps 757 mmHg 93%
    05:00 +19°C° 0.2 mm 2 mps 757 mmHg 93%
    06:00 +19°C° 0.2 mm 2 mps 757 mmHg 94%
    07:00 +20°C° 0.4 mm 2 mps 757 mmHg 88%
    08:00 +23°C° 0.4 mm 2 mps 758 mmHg 83%
    09:00 +24°C° 0.4 mm 2 mps 758 mmHg 77%
    10:00 +25°C° 0.2 mm 3 mps 758 mmHg 74%
    11:00 +26°C° 0.2 mm 3 mps 758 mmHg 71%
    12:00 +26°C° 0.2 mm 3 mps 757 mmHg 68%
    13:00 +28°C° 0 mm 2 mps 756 mmHg 60%
    14:00 +30°C° 0 mm 2 mps 755 mmHg 53%
    15:00 +32°C° 0 mm 1 mps 755 mmHg 45%
    16:00 +30°C° 0 mm 1 mps 755 mmHg 51%
    17:00 +28°C° 0 mm 2 mps 754 mmHg 56%
    18:00 +27°C° 0 mm 2 mps 754 mmHg 61%
    19:00 +25°C° 0.6 mm 3 mps 755 mmHg 69%
    20:00 +24°C° 0.6 mm 3 mps 756 mmHg 77%
    21:00 +22°C° 0.6 mm 3 mps 757 mmHg 84%
    22:00 +21°C° 0.2 mm 3 mps 757 mmHg 86%
    23:00 +21°C° 0.2 mm 2 mps 757 mmHg 88%
    Show more